Find Starlink 30802

NORAD ID: 58150 Int'l Des: 2023-166 Owner: SPXS Country: US Constellation: starlink operational
LEOCIRCULAR

实时位置

正在加载3D地球...

关于 Starlink 30802

正在加载描述...

即将过境

Passes for default location (London). Set your location on the main map for personalized predictions.

高度历史

Loading altitude history...

两行轨道根数

1 58150U 23166A 26124.45288823 .00000823 00000-0 38296-4 0 9997
2 58150 53.1611 320.8145 0001069 90.5169 269.5955 15.31696780141718
Epoch: May 4, 2026 • Age: 8 hours

当前状态

高度 475.2 km
速度 7.63 km/s
星下点 46.88°N, 135.49°W
发射日期 Oct 29, 2023
运行时间 2.5 years
类型 internet

技术详情

分类 Payload
质量 730.00 kg
干质量 700.00 kg
总质量 730.00 kg
长度 0.30 m
直径 4.10 m
跨度 29.00 m
形状 Box + pan
制造商 SPXS
平台类型 Starlink V2M
阶段状态 In Orbit
所有者/国家 SPXS/US

Most Searched